Terminal Aerodrome Forecast
Issued by NWS

Home | Current Version | Previous Version | Text Only | Print | Product List | Glossary On
Versions: 1 2 3 4 5 6 7 8 9 10 11 12 13 14 15 16 17 18 19 20 21 22 23 24 25 26 27 28 29 30 31 32 33 34 35 36 37 38 39 40 41 42 43
000
FTUS42 KCAE 182200 AAA
TAFOGB
TAF AMD
KOGB 182249Z 1823/1918 08005KT P6SM SCT035
     FM190900 VRB03KT 2SM BR BKN006
     FM191500 VRB04KT P6SM BKN015=

USA.gov is the U.S. government's official web portal to all federal, state and local government web resources and services.